Weather History for KEWB - May, 2013

Change the Weather History Date:

Sunday, May 19, 2013

  Actual Average Record
Temperature  
Mean Temperature 56 °F -  
Max Temperature 69 °F 63 °F 80 °F (1960)
Min Temperature 44 °F 49 °F 37 °F (2002)
Degree Days  
Heating Degree Days 9    
Growing Degree Days 6 (Base 50)    
Moisture  
Dew Point 47 °F    
Average Humidity 79    
Maximum Humidity 100    
Minimum Humidity 49    
Precipitation  
Precipitation 0.15 in - - ()
Sea Level Pressure  
Sea Level Pressure 30.31 in    
Wind  
Wind Speed 4 mph (South)    
Max Wind Speed 16 mph    
Max Gust Speed 21 mph    
Visibility 7 miles    
Events Rain    
Averages and records for this station are not official NWS values.
T = Trace of Precipitation, MM = Missing Value Source: NWS Daily Summary

Daily Weather History Graph

Daily Weather History Graph

Search for Another Location

Airport or City:

Trip Planner

Search our weather history database for the weather conditions in past years. The results will help you decide how hot, cold, wet, or windy it might be!

Date:

Astronomy

May. 19, 2013 Rise Set
Actual Time 5:20 AM EDT 8:00 PM EDT
Civil Twilight 4:48 AM EDT 8:33 PM EDT
Nautical Twilight 4:07 AM EDT 9:13 PM EDT
Astronomical Twilight 3:22 AM EDT 9:59 PM EDT
Moon 1:57 PM EDT (5/19) 1:47 AM EDT (5/19)
Length of Visible Light 15h 44m
Length of Day
14h 40m
Waxing Gibbous, 65% of the Moon is Illuminated
May 19
Waxing Gibbous
May 25
Full
May 31
Last Quarter
Jun 8
New
Jun 16
First Quarter

Hourly Weather History & Observations

Time (EDT) Temp. Dew Point Humidity Pressure Visibility Wind Dir Wind Speed Gust Speed Precip Events Conditions
12:53 AM 52.0 °F 48.9 °F 89% 30.30 in 10.0 mi WSW 4.6 mph - N/A   Clear
1:53 AM 50.0 °F 48.0 °F 93% 30.30 in 10.0 mi Calm Calm - N/A   Clear
2:42 AM 48.2 °F 46.4 °F 93% 30.31 in 1.5 mi Calm Calm - N/A   Clear
2:50 AM 48.2 °F 46.4 °F 93% 30.30 in 0.8 mi Calm Calm - N/A   Clear
2:53 AM 48.0 °F 46.9 °F 96% 30.31 in 1.8 mi Calm Calm - N/A   Clear
3:00 AM 46.4 °F 46.4 °F 100% 30.31 in 8.0 mi Calm Calm - N/A   Clear
3:16 AM 44.6 °F 44.6 °F 100% 30.31 in 1.5 mi Calm Calm - N/A   Clear
3:29 AM 46.4 °F 44.6 °F 93% 30.31 in 3.0 mi Calm Calm - N/A   Clear
3:53 AM 45.0 °F 44.1 °F 97% 30.31 in 7.0 mi Calm Calm - N/A   Clear
4:53 AM 44.1 °F 43.0 °F 96% 30.32 in 2.0 mi Calm Calm - N/A   Clear
5:01 AM 44.6 °F 42.8 °F 93% 30.32 in 10.0 mi Calm Calm - N/A   Clear
5:25 AM 44.6 °F 42.8 °F 93% 30.33 in 2.0 mi Calm Calm - N/A   Clear
5:35 AM 44.6 °F 44.6 °F 100% 30.33 in 10.0 mi Calm Calm - N/A   Clear
5:53 AM 45.0 °F 43.0 °F 93% 30.33 in 10.0 mi Calm Calm - N/A   Clear
6:53 AM 46.9 °F 46.0 °F 97% 30.34 in 10.0 mi SW 3.5 mph - N/A   Clear
7:53 AM 55.4 °F 51.8 °F 88% 30.35 in 10.0 mi SSW 4.6 mph - N/A   Clear
8:53 AM 63.0 °F 48.9 °F 60% 30.35 in 10.0 mi WSW 6.9 mph - N/A   Clear
9:53 AM 64.9 °F 48.0 °F 54% 30.35 in 10.0 mi SW 9.2 mph - N/A   Clear
10:53 AM 66.9 °F 48.9 °F 52% 30.35 in 10.0 mi SSW 15.0 mph 19.6 mph N/A   Partly Cloudy
11:53 AM 68.0 °F 50.0 °F 52% 30.35 in 10.0 mi South 12.7 mph - N/A   Partly Cloudy
12:53 PM 68.0 °F 48.0 °F 49% 30.34 in 10.0 mi SSW 13.8 mph - N/A   Partly Cloudy
1:53 PM 68.0 °F 48.0 °F 49% 30.32 in 10.0 mi SSW 15.0 mph - N/A   Clear
2:53 PM 66.2 °F 46.4 °F 49% 30.30 in 10.0 mi South 13.8 mph 20.7 mph N/A   Clear
3:53 PM 64.0 °F 46.9 °F 54% 30.31 in 10.0 mi SSW 15.0 mph - N/A   Scattered Clouds
4:53 PM 63.0 °F 46.9 °F 56% 30.30 in 10.0 mi SSW 16.1 mph - N/A   Scattered Clouds
5:53 PM 57.9 °F 50.0 °F 75% 30.30 in 10.0 mi SSW 11.5 mph - 0.00 in Rain Light Rain
6:53 PM 55.9 °F - N/A% 30.30 in 10.0 mi SSW 8.1 mph - 0.00 in Rain Light Rain
7:28 PM 55.4 °F - N/A% 30.30 in 10.0 mi South 5.8 mph - 0.02 in Rain Light Rain
7:42 PM 55.4 °F - N/A% 30.30 in 8.0 mi South 4.6 mph - 0.03 in Rain Light Rain
7:53 PM 55.0 °F - N/A% 30.29 in 7.0 mi South 5.8 mph - 0.04 in Rain Light Rain
8:41 PM 55.4 °F - N/A% 30.29 in 6.0 mi South 4.6 mph - 0.02 in Rain Light Rain
8:53 PM 55.0 °F - N/A% 30.30 in 5.0 mi South 5.8 mph - 0.03 in Rain Light Rain
9:02 PM 55.4 °F - N/A% 30.29 in 4.0 mi South 6.9 mph - 0.01 in Rain Light Rain
9:09 PM 55.4 °F - N/A% 30.29 in 4.0 mi SSE 4.6 mph - 0.02 in Rain Light Rain
9:53 PM 55.9 °F - N/A% 30.28 in 10.0 mi SSE 6.9 mph - 0.04 in Rain Light Rain
10:09 PM 55.4 °F - N/A% 30.27 in 10.0 mi SSE 9.2 mph - N/A   Overcast
10:50 PM 55.4 °F - N/A% 30.26 in 3.0 mi SE 4.6 mph - 0.01 in Rain Light Rain
10:53 PM 55.9 °F - N/A% 30.26 in 2.5 mi SE 5.8 mph - 0.01 in Rain Light Rain
11:03 PM 55.4 °F - N/A% 30.25 in 3.0 mi SSE 6.9 mph - 0.01 in Rain Light Rain
11:53 PM 55.9 °F - N/A% 30.25 in 3.0 mi SE 6.9 mph - 0.03 in Rain Light Rain